EW9544 Stamford CT US current weather conditions

sailwx.info

Wind from 234

Air temperature 20.0° C
Dewpoint 12.7° C

Last reported at 2020-Jun-02 23:01 UTC.
Time now 2020-Jun-02 23:32 UTC

Location: N 41°02' W 073°33'.
View on Google Maps.

See reports from other nearby stations

  
Tides and Currents Weather Stations Pressure Air Temp Water Temp Dewpoint Dewpoint Depression Visibility Wind Speed Wind Dir Waves Ship Positions
date/time (UTC)wind fromknots sea level pressurealtimeterstation pressurevisibilityair tempwater tempwave heightnotes
2020-Jun-02 23:01 234 20.0
2020-Jun-02 22:56 308 20.6
2020-Jun-02 22:51 318 20.6
2020-Jun-02 22:46 297 21.1
2020-Jun-02 22:41 317 21.1
2020-Jun-02 22:36 295 21.1
2020-Jun-02 22:31 312 21.1
2020-Jun-02 22:26 313 20.6
2020-Jun-02 22:21 254 20.6
2020-Jun-02 22:16 302 20.6
2020-Jun-02 22:11 236 20.6
2020-Jun-02 22:06 322 20.0
2020-Jun-02 22:01 305 20.0
2020-Jun-02 21:56 256 20.0
2020-Jun-02 21:51 243 20.0
2020-Jun-02 21:46 243 20.0
2020-Jun-02 21:41 235 20.0
2020-Jun-02 21:36 241 20.0
2020-Jun-02 21:31 241 20.0
2020-Jun-02 21:26 240 20.0
2020-Jun-02 21:21 243 20.6
2020-Jun-02 21:16 245 20.6
2020-Jun-02 21:11 270 20.0
2020-Jun-02 21:06 253 19.4
2020-Jun-02 21:01 242 18.9
2020-Jun-02 20:56 248 18.9
2020-Jun-02 20:51 241 18.9
2020-Jun-02 20:46 241 18.9
2020-Jun-02 20:41 240 18.9
2020-Jun-02 20:36 241 19.4
2020-Jun-02 20:31 240 18.9
2020-Jun-02 20:26 241 18.9
2020-Jun-02 20:21 240 18.9
2020-Jun-02 20:16 236 18.9
2020-Jun-02 20:11 241 19.4
2020-Jun-02 20:06 245 20.0
2020-Jun-02 20:01 245 20.6
2020-Jun-02 19:56 240 20.6
2020-Jun-02 19:51 261 20.6
2020-Jun-02 19:46 245 20.6
2020-Jun-02 19:41 262 21.1
2020-Jun-02 19:36 270 21.1
2020-Jun-02 19:31 260 21.1
2020-Jun-02 19:26 259 21.1
2020-Jun-02 19:21 316 21.1
2020-Jun-02 19:16 216 21.7
2020-Jun-02 19:11 271 21.7
2020-Jun-02 19:06 299 21.7
2020-Jun-02 19:01 307 21.7
2020-Jun-02 18:56 339 21.7
2020-Jun-02 18:51 302 21.7
2020-Jun-02 18:46 328 21.7
2020-Jun-02 18:41 260 21.7
2020-Jun-02 18:36 329 21.7
2020-Jun-02 18:31 314 21.7
2020-Jun-02 18:26 305 21.7
2020-Jun-02 18:21 270 22.2
2020-Jun-02 18:16 293 21.7
2020-Jun-02 18:11 281 20.6
2020-Jun-02 18:06 270 20.0
2020-Jun-02 18:01 255 20.0
2020-Jun-02 17:56 253 20.0
2020-Jun-02 17:51 237 20.0
2020-Jun-02 17:46 260 20.6
2020-Jun-02 17:41 260 20.6
2020-Jun-02 17:36 268 20.0
2020-Jun-02 17:31 260 20.0
2020-Jun-02 17:26 261 19.4
2020-Jun-02 17:21 269 19.4
2020-Jun-02 17:16 268 19.4
2020-Jun-02 17:11 272 21.1
2020-Jun-02 17:06 021 21.7
2020-Jun-02 17:01 021 21.7
2020-Jun-02 16:56 021 21.1
2020-Jun-02 16:51 021 21.1
2020-Jun-02 16:46 018 21.1
2020-Jun-02 16:41 015 21.1
2020-Jun-02 16:36 048 21.1
2020-Jun-02 16:31 036 21.1
2020-Jun-02 16:26 021 21.1
2020-Jun-02 16:21 354 20.6
2020-Jun-02 16:16 359 20.0
2020-Jun-02 16:11 314 19.4
2020-Jun-02 16:06 307 19.4
2020-Jun-02 16:01 314 19.4
2020-Jun-02 15:56 303 18.9
2020-Jun-02 15:51 272 18.9
2020-Jun-02 15:46 251 18.9
2020-Jun-02 15:41 222 18.9
2020-Jun-02 15:36 262 18.9
2020-Jun-02 15:31 267 18.9
2020-Jun-02 15:26 239 18.9
2020-Jun-02 15:21 274 18.3
2020-Jun-02 15:16 261 18.3
2020-Jun-02 15:11 335 18.3
2020-Jun-02 15:06 280 18.9
2020-Jun-02 15:01 296 18.3
2020-Jun-02 14:56 268 17.8
2020-Jun-02 14:51 254 17.8
2020-Jun-02 14:46 269 17.8
2020-Jun-02 14:41 258 18.3
2020-Jun-02 14:36 286 18.3
2020-Jun-02 14:31 314 18.3
2020-Jun-02 14:26 279 18.3
2020-Jun-02 14:21 312 18.3
2020-Jun-02 14:16 310 18.3
2020-Jun-02 14:11 258 17.8
2020-Jun-02 14:06 315 17.2
2020-Jun-02 14:01 299 17.2
2020-Jun-02 13:56 296 17.2
2020-Jun-02 13:51 283 16.7
2020-Jun-02 13:46 318 16.7
2020-Jun-02 13:41 308 16.7
2020-Jun-02 13:36 270 16.7
2020-Jun-02 13:31 270 16.7
2020-Jun-02 13:26 272 16.7
2020-Jun-02 13:21 283 16.7
2020-Jun-02 13:16 287 16.7
2020-Jun-02 13:11 287 16.1
2020-Jun-02 13:06 292 16.1
2020-Jun-02 13:01 299 16.1
2020-Jun-02 12:56 299 16.1
2020-Jun-02 12:51 299 16.1
2020-Jun-02 12:46 299 16.1
2020-Jun-02 12:41 296 16.1
2020-Jun-02 12:36 296 16.1
2020-Jun-02 12:31 299 15.6
2020-Jun-02 12:26 314 15.6
2020-Jun-02 12:21 320 16.1
2020-Jun-02 12:16 289 16.1
2020-Jun-02 12:11 295 15.6
2020-Jun-02 12:06 349 15.6
2020-Jun-02 12:01 316 15.6
2020-Jun-02 11:56 327 15.6
2020-Jun-02 11:51 312 15.6
2020-Jun-02 11:46 322 15.0
2020-Jun-02 11:41 299 15.0
2020-Jun-02 11:36 295 15.0
2020-Jun-02 11:31 308 15.0
2020-Jun-02 11:26 310 15.0
2020-Jun-02 11:21 310 15.0
2020-Jun-02 11:16 310 14.4
2020-Jun-02 11:11 310 14.4
2020-Jun-02 11:06 311 14.4
2020-Jun-02 11:01 310 14.4
2020-Jun-02 10:56 310 14.4
2020-Jun-02 10:51 305 13.9
2020-Jun-02 10:46 326 13.9
2020-Jun-02 10:41 305 13.9
2020-Jun-02 10:36 283 13.9
2020-Jun-02 10:31 283 13.9
2020-Jun-02 10:26 023 13.9
2020-Jun-02 10:21 023 13.3
2020-Jun-02 10:16 023 13.3
2020-Jun-02 10:11 023 13.3
2020-Jun-02 10:06 023 13.3
2020-Jun-02 10:01 023 12.8
2020-Jun-02 09:56 023 12.8
2020-Jun-02 09:51 023 12.8
2020-Jun-02 09:46 023 12.8
2020-Jun-02 09:41 023 12.2
2020-Jun-02 09:36 023 12.8
2020-Jun-02 09:31 023 12.8
2020-Jun-02 09:26 023 12.8
2020-Jun-02 09:21 023 12.8
2020-Jun-02 09:16 023 12.8
2020-Jun-02 09:11 023 12.8
2020-Jun-02 09:06 023 12.8
2020-Jun-02 09:01 023 12.8
2020-Jun-02 08:56 023 12.8
2020-Jun-02 08:51 023 12.8
2020-Jun-02 08:46 023 12.8
2020-Jun-02 08:41 023 12.8
2020-Jun-02 08:36 023 12.2
2020-Jun-02 08:31 023 12.2
2020-Jun-02 08:26 023 12.2
2020-Jun-02 08:21 023 12.2
2020-Jun-02 08:16 023 12.8
2020-Jun-02 08:11 023 12.8
2020-Jun-02 08:06 023 12.8
2020-Jun-02 08:01 023 12.8
2020-Jun-02 07:56 023 12.8
2020-Jun-02 07:51 023 13.3
2020-Jun-02 07:46 023 13.3
2020-Jun-02 07:41 023 13.3
2020-Jun-02 07:36 033 13.3
2020-Jun-02 07:31 034 13.3
2020-Jun-02 07:26 034 13.3
2020-Jun-02 07:21 020 13.9
2020-Jun-02 07:16 020 13.9
2020-Jun-02 07:11 021 13.9
2020-Jun-02 07:06 019 13.9
2020-Jun-02 07:01 041 13.9
2020-Jun-02 06:56 024 13.9
2020-Jun-02 06:51 029 13.9
2020-Jun-02 06:46 029 13.9
2020-Jun-02 06:41 028 13.9
2020-Jun-02 06:36 029 13.9
2020-Jun-02 06:31 028 13.9
2020-Jun-02 06:26 028 13.9
2020-Jun-02 06:21 030 13.9
2020-Jun-02 06:16 030 13.9
2020-Jun-02 06:11 030 13.3
2020-Jun-02 06:06 030 13.3
2020-Jun-02 06:01 030 13.3
2020-Jun-02 05:56 030 13.3
2020-Jun-02 05:51 030 13.3
2020-Jun-02 05:46 030 12.8
2020-Jun-02 05:41 033 12.8
2020-Jun-02 05:36 030 12.8
2020-Jun-02 05:31 091 12.8
2020-Jun-02 05:26 091 12.8
2020-Jun-02 05:21 091 12.8
2020-Jun-02 05:15 091 12.8
2020-Jun-02 05:10 091 12.8
2020-Jun-02 05:05 091 12.8
2020-Jun-02 05:01 091 12.8
2020-Jun-02 04:55 091 12.8
2020-Jun-02 04:51 091 12.8
2020-Jun-02 04:46 091 12.8
2020-Jun-02 04:40 091 12.8
2020-Jun-02 04:35 091 12.8
2020-Jun-02 04:30 091 12.8
2020-Jun-02 04:25 091 12.8
2020-Jun-02 04:20 091 12.8
2020-Jun-02 04:15 091 12.8
2020-Jun-02 04:10 091 13.3
2020-Jun-02 04:05 091 13.3
2020-Jun-02 04:00 091 13.3
2020-Jun-02 03:55 091 13.3
2020-Jun-02 03:50 091 13.3
2020-Jun-02 03:45 091 13.3
2020-Jun-02 03:40 091 13.3
2020-Jun-02 03:35 091 13.9
2020-Jun-02 03:30 091 13.9
2020-Jun-02 03:25 091 13.9
2020-Jun-02 03:20 091 14.4
2020-Jun-02 03:15 091 14.4
2020-Jun-02 03:10 091 14.4
2020-Jun-02 03:05 091 14.4
2020-Jun-02 03:00 091 14.4
2020-Jun-02 02:55 091 14.4
2020-Jun-02 02:50 091 14.4
2020-Jun-02 02:45 091 14.4
2020-Jun-02 02:40 091 15.0
2020-Jun-02 02:35 091 15.0
2020-Jun-02 02:30 091 15.0
2020-Jun-02 02:25 091 15.0
2020-Jun-02 02:20 091 15.0
2020-Jun-02 02:15 091 15.6
2020-Jun-02 02:10 091 15.6
2020-Jun-02 02:05 091 16.1
2020-Jun-02 02:00 091 16.1
2020-Jun-02 01:55 091 16.7
2020-Jun-02 01:50 091 16.7
2020-Jun-02 01:45 091 16.7
2020-Jun-02 01:40 091 16.7
2020-Jun-02 01:35 092 16.7
2020-Jun-02 01:30 091 16.7
2020-Jun-02 01:25 091 16.7
2020-Jun-02 01:20 091 17.2
2020-Jun-02 01:15 091 17.2
2020-Jun-02 01:10 091 17.2
2020-Jun-02 01:05 091 17.8
2020-Jun-02 01:00 091 17.8
2020-Jun-02 00:55 091 17.8
2020-Jun-02 00:50 091 17.8
2020-Jun-02 00:45 091 18.3
2020-Jun-02 00:40 091 18.3
2020-Jun-02 00:35 091 18.3
2020-Jun-02 00:30 091 18.3
2020-Jun-02 00:25 091 18.3
2020-Jun-02 00:20 084 18.3
2020-Jun-02 00:15 058 18.9
2020-Jun-02 00:10 097 18.9
2020-Jun-02 00:05 097 18.9
2020-Jun-02 00:00 053 18.9
2020-Jun-01 23:55 091 18.9
2020-Jun-01 23:50 074 18.9
2020-Jun-01 23:45 053 18.9
2020-Jun-01 23:40 077 18.9
2020-Jun-01 23:35 050 18.9
2020-Jun-01 23:30 093 19.4
2020-Jun-01 23:25 065 19.4
2020-Jun-01 23:20 090 19.4
2020-Jun-01 23:15 091 19.4
2020-Jun-01 23:10 052 19.4
2020-Jun-01 23:05 067 19.4
2020-Jun-01 23:00 063 19.4
2020-Jun-01 22:55 076 19.4
2020-Jun-01 22:50 043 19.4
2020-Jun-01 22:45 004 20.0
2020-Jun-01 22:40 054 20.0
2020-Jun-01 22:35 078 20.0
2020-Jun-01 22:30 016 20.0
2020-Jun-01 22:25 073 20.0
2020-Jun-01 22:20 056 20.6
2020-Jun-01 22:15 055 20.6
2020-Jun-01 22:10 062 20.6
2020-Jun-01 22:05 068 21.1
2020-Jun-01 22:00 027 21.1
2020-Jun-01 21:55 041 21.7
2020-Jun-01 21:50 015 21.7
2020-Jun-01 21:45 073 21.7
2020-Jun-01 21:40 073 21.1
2020-Jun-01 21:35 004 20.6
2020-Jun-01 21:30 062 20.6
2020-Jun-01 21:25 056 20.6
2020-Jun-01 21:20 044 20.6
2020-Jun-01 21:15 025 21.1
2020-Jun-01 21:10 321 21.7
2020-Jun-01 21:05 049 21.7
2020-Jun-01 21:00 054 21.7
2020-Jun-01 20:55 014 21.1
2020-Jun-01 20:50 089 20.6
2020-Jun-01 20:45 011 20.6
2020-Jun-01 20:40 010 20.6
2020-Jun-01 20:35 046 21.1
2020-Jun-01 20:30 046 21.1
2020-Jun-01 20:25 212 21.1
2020-Jun-01 20:20 285 21.7
2020-Jun-01 20:15 340 21.7
2020-Jun-01 20:10 004 21.7
2020-Jun-01 20:05 084 21.7
2020-Jun-01 20:00 359 21.7
2020-Jun-01 19:55 049 21.7
2020-Jun-01 19:50 035 21.1
2020-Jun-01 19:45 295 20.6
2020-Jun-01 19:40 293 20.6
2020-Jun-01 19:35 043 20.6
2020-Jun-01 19:30 310 20.0
2020-Jun-01 19:25 014 20.6
2020-Jun-01 19:20 251 20.6
2020-Jun-01 19:15 012 20.6
2020-Jun-01 19:10 197 20.6
2020-Jun-01 19:05 053 20.0
2020-Jun-01 19:00 008 20.6
2020-Jun-01 18:55 083 20.6
2020-Jun-01 18:50 016 20.0
2020-Jun-01 18:45 029 20.0
2020-Jun-01 18:40 027 20.0
2020-Jun-01 18:35 359 19.4
2020-Jun-01 18:30 053 19.4
2020-Jun-01 18:25 060 19.4
2020-Jun-01 18:20 038 19.4
2020-Jun-01 18:15 077 20.0
2020-Jun-01 18:10 004 19.4
2020-Jun-01 18:05 067 18.9
2020-Jun-01 18:00 032 19.4
2020-Jun-01 17:55 013 19.4
2020-Jun-01 17:50 054 18.9
2020-Jun-01 17:45 071 19.4
2020-Jun-01 17:40 069 18.3
2020-Jun-01 17:35 062 18.3
2020-Jun-01 17:30 020 18.9
2020-Jun-01 17:25 359 18.9
2020-Jun-01 17:20 029 18.3
2020-Jun-01 17:15 285 17.8
2020-Jun-01 17:10 045 17.8
2020-Jun-01 17:05 048 18.3
2020-Jun-01 17:00 043 18.3
2020-Jun-01 16:55 026 18.3
2020-Jun-01 16:50 014 18.9
2020-Jun-01 16:45 026 18.9
2020-Jun-01 16:40 012 18.9
2020-Jun-01 16:35 041 18.9
2020-Jun-01 16:30 023 18.9
2020-Jun-01 16:25 321 18.3
2020-Jun-01 16:20 053 18.9
2020-Jun-01 16:15 073 18.9
2020-Jun-01 16:10 050 18.3
2020-Jun-01 16:00 033 17.8
2020-Jun-01 15:55 014 17.2
2020-Jun-01 15:50 354 17.8
2020-Jun-01 15:40 041 17.2
2020-Jun-01 15:35 017 16.7
2020-Jun-01 15:30 059 16.7
2020-Jun-01 15:25 049 16.1
2020-Jun-01 15:20 336 16.7
2020-Jun-01 15:15 060 16.7
2020-Jun-01 15:10 343 17.2
2020-Jun-01 15:05 049 16.7
2020-Jun-01 15:00 030 16.7
2020-Jun-01 14:55 354 16.1
2020-Jun-01 14:50 004 16.1
2020-Jun-01 14:45 075 16.7
2020-Jun-01 14:40 004 16.7
2020-Jun-01 14:35 051 16.1
2020-Jun-01 14:30 359 16.7
2020-Jun-01 13:40 012 16.1
2020-Jun-01 13:35 024 16.1
2020-Jun-01 13:30 024 16.1
2020-Jun-01 13:25 349 15.6
2020-Jun-01 13:20 097 15.6
2020-Jun-01 13:15 015 15.6
2020-Jun-01 13:10 004 15.6
2020-Jun-01 13:05 008 15.6
2020-Jun-01 13:00 008 15.0
2020-Jun-01 12:55 009 14.4
2020-Jun-01 12:50 029 14.4
2020-Jun-01 12:45 042 14.4
2020-Jun-01 12:40 043 14.4
2020-Jun-01 12:35 041 13.9
2020-Jun-01 12:30 056 13.9
2020-Jun-01 12:25 065 13.3
2020-Jun-01 12:20 039 13.3
2020-Jun-01 12:15 061 13.3
2020-Jun-01 12:10 057 13.3
2020-Jun-01 12:05 085 12.8
2020-Jun-01 12:00 039 12.8
2020-Jun-01 11:55 041 12.8
2020-Jun-01 11:50 093 12.8
2020-Jun-01 11:45 337 12.2
2020-Jun-01 11:40 064 12.2
2020-Jun-01 11:35 004 11.7
2020-Jun-01 11:30 008 11.7
2020-Jun-01 11:25 034 11.7
2020-Jun-01 11:20 031 11.1
2020-Jun-01 11:15 034 11.1
2020-Jun-01 11:10 015 11.1
2020-Jun-01 11:05 014 10.6
2020-Jun-01 11:00 075 10.6
2020-Jun-01 10:55 077 10.0
2020-Jun-01 10:50 021 10.0
2020-Jun-01 10:45 016 9.4
2020-Jun-01 10:40 004 9.4
2020-Jun-01 10:35 004 8.9
2020-Jun-01 10:30 004 8.9
2020-Jun-01 10:25 008 8.3
2020-Jun-01 10:15 004 8.3
2020-Jun-01 10:05 325 7.8
2020-Jun-01 09:55 050 7.2
2020-Jun-01 09:45 050 7.2
2020-Jun-01 09:40 049 7.2
2020-Jun-01 09:35 050 7.2
2020-Jun-01 09:30 050 7.2
2020-Jun-01 09:25 050 7.2
2020-Jun-01 09:20 050 7.2
2020-Jun-01 09:15 050 7.2
2020-Jun-01 09:10 050 7.2
2020-Jun-01 09:05 050 7.2
2020-Jun-01 09:00 050 7.2
2020-Jun-01 08:55 050 7.8
2020-Jun-01 08:50 050 7.8
2020-Jun-01 08:45 050 7.8
2020-Jun-01 08:40 050 7.8
2020-Jun-01 08:35 050 7.8
2020-Jun-01 08:30 050 7.8
2020-Jun-01 08:25 050 7.8
2020-Jun-01 08:20 050 7.8
2020-Jun-01 08:15 050 7.8
2020-Jun-01 08:10 050 7.8
2020-Jun-01 08:05 050 7.8
2020-Jun-01 08:00 050 8.3
2020-Jun-01 07:55 049 8.3
2020-Jun-01 07:50 050 8.3
2020-Jun-01 07:45 050 8.3
2020-Jun-01 07:40 050 8.3
2020-Jun-01 07:35 049 8.3
2020-Jun-01 07:30 050 8.3
2020-Jun-01 07:25 050 8.3
2020-Jun-01 07:20 050 8.9
2020-Jun-01 07:15 050 8.9
2020-Jun-01 07:10 050 8.9
2020-Jun-01 07:05 050 8.9
2020-Jun-01 07:00 050 9.4
2020-Jun-01 06:55 050 9.4
2020-Jun-01 06:50 049 9.4
2020-Jun-01 06:45 049 9.4
2020-Jun-01 06:40 050 10.0
2020-Jun-01 06:35 050 10.0
2020-Jun-01 06:30 050 10.0
2020-Jun-01 06:25 050 10.6
2020-Jun-01 06:20 050 10.6
2020-Jun-01 06:15 050 10.6
2020-Jun-01 06:10 049 10.6
2020-Jun-01 06:05 050 11.1
2020-Jun-01 06:00 050 11.1
2020-Jun-01 05:55 050 11.1
2020-Jun-01 05:50 050 11.1
2020-Jun-01 05:45 050 11.1
2020-Jun-01 05:40 050 11.1
2020-Jun-01 05:35 050 11.1
2020-Jun-01 05:30 045 11.7
2020-Jun-01 05:25 050 11.7
2020-Jun-01 05:20 050 11.7
2020-Jun-01 05:15 050 11.7
2020-Jun-01 05:10 050 11.7
2020-Jun-01 05:05 050 11.7
2020-Jun-01 05:00 050 11.7
2020-Jun-01 04:55 071 11.7
2020-Jun-01 04:50 089 11.7
2020-Jun-01 04:45 060 11.7
2020-Jun-01 04:40 065 11.7
2020-Jun-01 04:35 071 11.7
2020-Jun-01 04:30 060 11.7
2020-Jun-01 04:25 052 12.2
2020-Jun-01 04:20 066 12.2
2020-Jun-01 04:15 067 12.2
2020-Jun-01 04:10 066 12.2
2020-Jun-01 04:05 066 12.2
2020-Jun-01 04:00 050 12.8
2020-Jun-01 03:55 097 12.8
2020-Jun-01 03:50 097 12.8
2020-Jun-01 03:45 097 12.8
2020-Jun-01 03:40 097 12.8
2020-Jun-01 03:35 097 12.8
2020-Jun-01 03:30 085 13.3
2020-Jun-01 03:25 083 13.3
2020-Jun-01 03:20 064 13.3
2020-Jun-01 03:15 056 13.3
2020-Jun-01 03:10 060 13.3
2020-Jun-01 03:04 090 13.9
2020-Jun-01 03:00 060 13.9
2020-Jun-01 02:54 039 13.9
2020-Jun-01 02:49 075 13.9
2020-Jun-01 02:44 093 13.9
2020-Jun-01 02:39 078 14.4
2020-Jun-01 02:34 039 14.4
2020-Jun-01 02:29 062 14.4
2020-Jun-01 02:24 057 14.4
2020-Jun-01 02:19 062 14.4
2020-Jun-01 02:14 045 14.4
2020-Jun-01 02:09 075 14.4
2020-Jun-01 02:04 068 15.0
2020-Jun-01 01:59 052 15.0
2020-Jun-01 01:54 072 15.0
2020-Jun-01 01:49 058 15.0
2020-Jun-01 01:44 076 15.6
2020-Jun-01 01:39 081 15.6
2020-Jun-01 01:34 058 15.6
2020-Jun-01 01:29 075 15.6
2020-Jun-01 01:24 054 15.6
2020-Jun-01 01:19 056 16.1
2020-Jun-01 01:14 053 16.1
2020-Jun-01 01:09 037 16.1
2020-Jun-01 01:04 064 16.1
2020-Jun-01 00:59 071 16.1
2020-Jun-01 00:54 058 16.1
2020-Jun-01 00:49 053 16.7
2020-Jun-01 00:44 068 16.7
2020-Jun-01 00:39 066 16.7
2020-Jun-01 00:34 073 16.7
2020-Jun-01 00:29 050 16.7
2020-Jun-01 00:24 011 16.7
2020-Jun-01 00:19 010 17.2
2020-Jun-01 00:14 016 17.2
2020-Jun-01 00:09 016 17.2
2020-Jun-01 00:04 050 17.2
2020-May-31 23:59 031 17.8
2020-May-31 23:54 068 17.8
2020-May-31 23:49 065 17.8
2020-May-31 23:44 026 17.8
2020-May-31 23:39 035 17.8
2020-May-31 23:34 032 18.3
2020-May-31 23:29 021 18.3
2020-May-31 23:24 014 18.3
2020-May-31 23:19 017 18.9
2020-May-31 23:14 016 18.9
2020-May-31 23:09 349 18.9
2020-May-31 23:04 052 18.9